{"data":{"norad_id":60288,"intl_designator":"2024-132L","name":"STARLINK-31997","alt_names":[],"object_type":"PAYLOAD","status":"ACTIVE","operator":null,"country":"US","launch_date":"2024-07-28","launch_site_code":"AFETR","launch_vehicle":null,"mission":null,"orbit_class":"UNKNOWN","rcs_meters":null,"size_class":null,"mass_kg":null,"dimensions":null,"purposes":["comms"],"wikipedia_slug":null,"has_3d_model":false,"image_url":null,"decayed_at":null,"tle_current":{"epoch":"2026-09-21T07:08:52.778976Z","epoch_age_seconds":113319,"freshness":"FRESH","line1":"1 60288U 24132L   26264.29783309 -.00000376  00000+0  18223-7 0  9996","line2":"2 60288  53.1595 222.0930 0001306  86.2912 273.8240 15.34390876121534","mean_motion":15.34390876,"eccentricity":0.0001306,"inclination_deg":53.1595,"raan_deg":222.093,"arg_perigee_deg":86.2912,"mean_anomaly_deg":273.824,"bstar":1.8223e-8,"rev_number":12153,"period_min":93.848316131411,"perigee_km":461.83694151522,"apogee_km":463.62377606934,"semimajor_km":6840.8673587923,"source":"CELESTRAK","updated_at":"2026-09-22T09:00:49.193430Z"}}}